STARLINK-1869 (47155 NORAD) Tracking and Keplerian Element Data

This shows tracking and keplerian element data for the satellite.

Feedback or suggestion? Click here.




ElementValue
Catalog47155
NameSTARLINK-1869
Epoch Orbit180
Epoch Day99.91667824
Epoch Year2021
RAAN88.6736
Inclination53.0539
Eccentricity4E-05
Argument of Perigee82.3029
Mean Anonmoly203.54
Mean Motion15.06387783
Decay Rate0.00030788
L11 47155U 20088AK 21099.91667824 .00030788 00000-0 20775-2 0 9993
L22 47155 53.0539 88.6736 0000400 82.3029 203.5400 15.06387783 1806

Live tracking and technical data element details for STARLINK-1869 (NORAD 47155). STARLINK-1869 can be tracked NOW for your location showing map with azimuth and elevation plus other details from your city location.

Track the satellite on the map from your city or location and see movement details for azimuth, elevation, latitude, longitude, range, height, and movement on the map or in text.







IsCatalogInMostPopularTable: catalog: 47155, numindb: 49
Update: records affected: 1



GetName: 47155 STARLINK-1869

Hit Count: updated at: Sat, 10 Apr 2021 19:06:36 GMT